Fort Knox, KY

7:14 PM EDT on April 28, 2017 (GMT -0400)
Godman Army Air Field

Weather History for KFTK - September, 2012

Change the Weather History Date:

Friday, September 21, 2012

  Actual Average Record
Temperature  
Mean Temperature 64 °F -  
Max Temperature 77 °F 75 °F 96 °F (2010)
Min Temperature 52 °F 53 °F 42 °F (2006)
Growing Degree Days 14 (Base 50)    
Moisture  
Dew Point 56 °F    
Average Humidity 73    
Maximum Humidity 95    
Minimum Humidity 56    
Precipitation  
Precipitation 0.00 in - - ()
Sea Level Pressure  
Sea Level Pressure 29.93 in    
Wind  
Wind Speed 5 mph (South)    
Max Wind Speed 17 mph    
Max Gust Speed 23 mph    
Visibility 10 miles    
Events Rain    
Averages and records for this station are not official NWS values.
T = Trace of Precipitation, MM = Missing Value Source: NWS Daily Summary

Daily Weather History Graph

Daily Weather History Graph

Search for Another Location

Airport or City:

Trip Planner

Search our weather history database for the weather conditions in past years. The results will help you decide how hot, cold, wet, or windy it might be!

Date:

Astronomy

Sep. 21, 2012 Rise Set
Actual Time 7:31 AM EDT 7:41 PM EDT
Civil Twilight 7:04 AM EDT 8:07 PM EDT
Nautical Twilight 6:34 AM EDT 8:38 PM EDT
Astronomical Twilight 6:03 AM EDT 9:09 PM EDT
Moon 1:45 PM EDT (9/21) 11:48 PM EDT (9/21)
Length of Visible Light 13h 02m
Length of Day
12h 10m
Waxing Crescent, 37% of the Moon is Illuminated
Sep 21
Waxing Crescent
Sep 22
First Quarter
Sep 29
Full
Oct 8
Last Quarter
Oct 15
New

Hourly Weather History & Observations

Time (EDT) Temp. Dew Point Humidity Pressure Visibility Wind Dir Wind Speed Gust Speed Precip Events Conditions
12:55 AM 61.2 °F 53.6 °F 76% 29.98 in 10.0 mi South 3.5 mph - N/A   Clear
1:55 AM 59.5 °F 53.6 °F 81% 29.99 in 10.0 mi Calm Calm - N/A   Partly Cloudy
2:55 AM 59.9 °F 53.4 °F 79% 29.99 in 10.0 mi Calm Calm - N/A   Mostly Cloudy
3:55 AM 57.2 °F 53.1 °F 86% 30.00 in 10.0 mi Calm Calm - N/A   Clear
4:55 AM 55.2 °F 52.5 °F 91% 29.99 in 10.0 mi Calm Calm - N/A   Clear
5:55 AM 54.5 °F 52.3 °F 92% 29.99 in 10.0 mi Calm Calm - N/A   Clear
6:55 AM 54.3 °F 52.3 °F 93% 30.01 in 10.0 mi SW 3.5 mph - N/A   Clear
7:55 AM 52.3 °F 51.1 °F 95% 30.01 in 10.0 mi Calm Calm - N/A   Clear
8:55 AM 59.2 °F 54.7 °F 85% 30.01 in 10.0 mi South 2.3 mph - N/A   Overcast
9:55 AM 63.1 °F 55.6 °F 76% 30.01 in 10.0 mi SSW 2.3 mph - N/A   Overcast
10:55 AM 64.6 °F 56.8 °F 76% 30.01 in 10.0 mi South 4.6 mph - 0.00 in Rain Light Rain
11:55 AM 68.9 °F 59.0 °F 71% 30.01 in 10.0 mi Variable 4.6 mph - 0.00 in   Overcast
12:55 PM 72.9 °F 59.9 °F 64% 29.98 in 10.0 mi South 9.2 mph - N/A   Overcast
1:55 PM 72.5 °F 59.4 °F 63% 29.95 in 10.0 mi South 10.4 mph - N/A   Overcast
2:55 PM 72.7 °F 60.1 °F 64% 29.92 in 10.0 mi South 11.5 mph - N/A   Mostly Cloudy
3:55 PM 76.8 °F 60.8 °F 58% 29.87 in 10.0 mi South 13.8 mph - N/A   Clear
4:55 PM 77.2 °F 60.6 °F 56% 29.84 in 10.0 mi South 13.8 mph - N/A   Scattered Clouds
5:55 PM 75.2 °F 60.1 °F 59% 29.82 in 10.0 mi South 12.7 mph - N/A   Overcast
6:55 PM 74.5 °F 59.7 °F 60% 29.80 in 10.0 mi South 16.1 mph 23.0 mph N/A   Partly Cloudy
7:55 PM 72.0 °F 58.3 °F 62% 29.80 in 10.0 mi South 15.0 mph 21.9 mph N/A   Clear
8:55 PM 69.3 °F 58.1 °F 68% 29.81 in 10.0 mi SSW 8.1 mph - N/A   Scattered Clouds
9:55 PM 69.3 °F 58.1 °F 68% 29.81 in 10.0 mi SSW 9.2 mph - N/A   Overcast
10:55 PM 69.8 °F 56.7 °F 63% 29.81 in 10.0 mi SSW 16.1 mph 21.9 mph N/A   Mostly Cloudy
11:55 PM 69.1 °F 55.8 °F 62% 29.80 in 10.0 mi SSW 17.3 mph 23.0 mph N/A   Partly Cloudy